Temperature
4 4 4 4 4 4 4 4 4 4 4 4 4 4 5 5 5 5 5 5 5 5 5 5 5 5 5 5 5 5 5 5 5 5 5 5 5 5 5 4 4 4 4
4 4 4 4 4 4 4 4 4 4 4 4 4 4 4 4 4 4 4 5 5 5 5 5 5 5 5 5 5 5 5 5 5 5 4 4 4 4 4 4 4 3 3
3 3 3 3 3 3 3 3 3 3 3 3 3 3 3 3 3 4 4 4 4 4 4 4 4 4 4 4 4 4 4 4 4 4 4 4 4 3 3 3 3 3 3
2 2 2 2 2 2 2 2 2 2 2 2 2 3 3 3 3 3 3 3 3 4 4 4 4 4 4 4 4 4 4 4 4 3 3 3 3 3 3 3 2 2 2
2 2 2 2 2 2 2 2 2 2 2 2 2 2 2 2 2 3 3 3 3 3 3 3 3 3 3 3 3 3 3 3 3 3 3 3 2 2 2 2 2 2 2
1 1 1 1 1 1 1 1 1 1 1 1 2 2 2 2 2 2 2 3 3 3 3 3 3 3 3 3 3 3 3 3 3 2 2 2 2 2 2 2 1 1 1
1 1 1 1 0 0 0 0 1 1 1 1 1 1 1 1 2 2 2 2 2 2 2 2 2 2 2 3 2 2 3 2 2 2 2 2 2 1 1 1 1 1 1
0 0 0 0 0 0 0 0 0 0 0 1 1 1 1 1 1 1 2 2 2 2 2 2 2 2 2 2 2 2 2 2 2 2 2 1 1 1 1 1 0 0 -0
-0 -0 -0 -0 -0 -0 -0 -0 0 -0 0 0 0 0 1 1 1 1 1 1 1 2 2 2 2 2 2 2 2 1 1 1 1 1 1 1 1 0 0 -0 -0 -1 -1
-1 -1 -0 -0 -0 -0 -0 -0 -0 -0 -0 -0 -0 -0 -0 0 0 0 1 1 1 1 1 1 1 1 1 1 1 1 1 1 0 0 0 0 0 -0 -0 -1 -1 -1 -1
-1 -1 -1 -1 -1 -1 -1 -1 -1 -1 -1 -1 -1 -1 -1 -1 -0 -0 -0 0 0 0 0 0 1 1 1 1 0 0 0 0 -0 -0 -0 -0 -1 -1 -1 -1 -1 -1 -2
-1 -1 -1 -1 -1 -1 -1 -1 -1 -1 -1 -1 -1 -1 -1 -1 -1 -1 -1 -0 -0 -1 -0 -0 -0 0 0 -0 -0 -0 -0 -1 -1 -1 -1 -1 -1 -2 -2 -2 -2 -2 -2
-2 -1 -1 -1 -1 -1 -1 -1 -2 -2 -2 -2 -2 -2 -2 -1 -1 -1 -1 -1 -1 -1 -1 -1 -1 -1 -1 -1 -1 -1 -1 -1 -1 -1 -2 -2 -2 -2 -2 -2 -2 -3 -3
-2 -2 -2 -1 -1 -2 -2 -2 -2 -2 -2 -2 -2 -2 -2 -2 -2 -2 -2 -2 -1 -1 -2 -2 -2 -2 -1 -1 -2 -2 -2 -2 -2 -2 -2 -3 -3 -3 -3 -3 -3 -3 -3
-2 -2 -2 -2 -2 -2 -2 -2 -2 -2 -2 -2 -2 -2 -2 -2 -2 -2 -2 -2 -2 -2 -2 -2 -2 -2 -2 -2 -2 -2 -3 -3 -3 -3 -3 -3 -3 -3 -4 -4 -4 -4 -4
-3 -2 -2 -2 -3 -3 -3 -3 -3 -3 -3 -3 -3 -3 -3 -3 -3 -3 -3 -2 -2 -2 -3 -3 -3 -3 -3 -3 -3 -3 -3 -3 -3 -3 -4 -4 -4 -4 -4 -4 -4 -4 -4
-3 -3 -3 -3 -3 -3 -3 -3 -3 -3 -3 -3 -3 -3 -3 -3 -3 -3 -3 -3 -3 -3 -3 -3 -3 -4 -4 -4 -4 -4 -4 -4 -4 -4 -4 -4 -4 -5 -5 -5 -5 -5 -5
-3 -4 -4 -4 -4 -4 -4 -4 -4 -4 -4 -3 -3 -3 -3 -3 -3 -3 -3 -3 -4 -4 -4 -4 -4 -4 -4 -4 -4 -4 -4 -4 -4 -4 -5 -5 -5 -5 -5 -5 -5 -5 -6
-4 -4 -4 -4 -4 -4 -4 -4 -4 -4 -4 -4 -4 -4 -4 -4 -4 -4 -4 -4 -4 -4 -4 -5 -5 -5 -5 -5 -5 -5 -5 -5 -5 -5 -5 -5 -5 -5 -5 -6 -6 -6 -6
-4 -4 -4 -4 -4 -5 -4 -5 -5 -5 -4 -4 -4 -4 -4 -4 -4 -4 -5 -5 -5 -5 -5 -5 -5 -5 -5 -5 -5 -5 -5 -5 -5 -5 -5 -5 -5 -6 -6 -6 -6 -6 -7
-4 -4 -5 -5 -5 -5 -5 -5 -5 -5 -5 -5 -5 -5 -5 -5 -5 -5 -5 -5 -5 -5 -6 -6 -6 -6 -6 -6 -6 -6 -6 -6 -6 -6 -6 -6 -6 -6 -6 -7 -7 -7 -7
-4 -5 -5 -5 -5 -5 -5 -5 -5 -5 -5 -5 -5 -5 -5 -5 -5 -5 -5 -6 -6 -6 -6 -6 -6 -6 -6 -6 -6 -6 -6 -6 -6 -6 -6 -6 -6 -7 -7 -7 -7 -7 -7
-5 -5 -5 -5 -5 -5 -6 -5 -5 -5 -5 -5 -5 -5 -5 -6 -6 -6 -6 -6 -6 -6 -6 -6 -6 -6 -6 -6 -6 -6 -6 -6 -6 -6 -6 -7 -7 -7 -7 -7 -7 -7 -7
-5 -5 -5 -5 -5 -6 -6 -6 -6 -5 -5 -5 -5 -6 -6 -6 -6 -6 -6 -6 -6 -6 -6 -6 -7 -7 -7 -6 -6 -7 -7 -7 -7 -7 -7 -7 -7 -7 -7 -7 -7 -8 -8
-5 -5 -6 -6 -6 -6 -6 -6 -6 -6 -6 -6 -6 -6 -6 -6 -6 -6 -7 -7 -7 -7 -7 -7 -7 -7 -7 -7 -7 -7 -7 -7 -7 -7 -7 -7 -7 -7 -7 -8 -8 -8 -8
-6 -6 -6 -6 -6 -6 -6 -6 -6 -6 -6 -6 -6 -6 -7 -7 -7 -7 -7 -7 -7 -7 -7 -7 -7 -7 -7 -7 -7 -7 -7 -7 -7 -7 -7 -7 -7 -8 -8 -8 -8 -8 -8
Wind_Speed
2 3 3 2 3 3 2 3 3 3 3 4 4 4 4 5 5 5 5 5 6 6 5 6 7 5 5 4 4 4 5 4 5 3 2 2 3 3 2 4 5 5 6
2 3 3 2 3 3 3 3 3 4 4 4 4 5 5 5 5 6 6 6 6 7 6 5 6 5 6 5 5 5 5 5 5 5 3 2 2 3 3 2 3 4 4
2 3 3 3 3 3 3 3 3 4 4 4 4 5 5 6 6 6 6 6 6 6 6 7 7 6 6 5 5 6 5 4 4 4 3 2 2 2 2 2 2 2 3
2 3 4 4 3 3 3 3 4 4 4 4 4 5 6 5 5 5 6 6 6 6 6 6 6 7 7 6 6 6 5 4 3 4 3 2 2 2 2 2 2 2 3
3 4 4 3 3 3 3 3 4 4 5 4 4 5 5 5 5 5 5 5 5 6 6 5 6 6 7 6 5 5 5 4 4 4 3 2 2 2 3 2 3 2 3
3 4 3 3 4 3 3 4 4 4 4 4 4 5 5 5 7 7 5 4 5 5 5 4 4 5 6 7 7 6 5 6 6 5 5 5 5 4 2 3 2 1 3
4 4 3 3 4 4 4 4 4 4 4 4 4 5 6 6 7 8 6 4 4 4 4 3 3 4 5 4 5 5 5 6 7 7 6 6 5 5 4 4 4 3 4
4 4 4 4 4 4 4 4 4 4 4 4 4 5 5 6 8 8 6 4 3 4 4 4 4 4 5 4 3 3 3 4 5 4 5 5 4 4 4 4 4 2 2
4 4 4 4 4 4 4 4 4 3 3 4 4 4 4 5 7 6 5 2 2 3 3 3 4 4 5 5 4 3 2 2 2 3 3 3 3 3 3 2 2 1 2
4 5 5 4 4 5 5 4 3 3 3 4 4 4 4 5 6 6 4 2 2 2 2 3 4 3 4 4 4 3 3 2 2 1 1 1 1 2 4 4 4 3 1
5 5 5 4 4 4 4 3 3 2 3 3 4 4 4 4 5 5 4 2 2 2 2 2 2 3 4 4 3 3 4 2 2 2 1 1 1 1 1 1 2 2 2
5 5 5 4 4 3 3 3 3 2 2 3 3 3 3 3 4 4 3 2 2 2 1 1 1 1 1 2 2 3 4 3 2 2 1 1 1 0 0 1 1 1 1
5 5 4 4 3 3 2 3 3 2 2 2 2 3 3 2 3 3 2 2 3 1 1 1 1 1 1 1 3 3 3 2 2 2 2 1 1 1 1 2 2 3 2
4 4 4 3 3 3 2 2 2 2 2 2 3 3 3 2 2 1 1 1 1 1 1 0 1 2 2 2 2 2 1 2 2 2 1 1 1 1 1 1 1 1 2
4 4 4 3 3 2 2 2 2 2 3 3 3 3 3 3 3 2 1 0 0 0 1 1 1 2 2 2 2 2 2 2 1 1 2 1 1 1 1 0 1 0 0
4 4 3 3 3 2 2 3 4 3 4 4 3 3 3 3 3 2 1 1 1 2 2 1 1 1 1 1 1 1 1 1 1 1 1 1 1 1 1 0 0 0 0
4 4 3 3 3 2 2 2 3 4 5 5 4 3 3 2 1 0 1 1 2 2 1 1 1 1 1 1 1 1 1 1 1 1 1 1 1 1 1 0 0 0 0
4 4 4 3 3 2 2 2 2 2 3 3 4 4 3 1 1 1 2 2 1 2 1 1 0 0 0 1 1 1 1 1 1 1 1 1 1 1 1 0 0 0 0
3 3 3 2 2 2 2 2 1 1 2 2 2 2 3 2 1 2 2 2 1 1 1 1 1 0 0 0 1 1 1 1 1 1 1 1 1 1 1 1 0 0 0
3 4 4 2 2 2 2 2 1 1 1 1 1 2 2 1 1 1 1 1 1 1 1 1 1 1 1 1 1 1 1 1 1 1 1 1 1 1 1 1 1 0 0
3 3 4 3 2 2 2 2 2 1 1 1 1 1 1 1 1 0 0 0 1 1 1 1 1 1 1 1 1 1 1 1 1 1 1 1 1 1 1 1 0 0 0
2 2 2 2 2 2 2 2 2 1 1 1 1 1 1 1 0 0 0 0 1 1 1 1 1 1 1 1 1 1 1 1 1 1 1 1 1 1 1 1 1 0 0
2 2 2 2 2 3 3 2 1 2 1 1 1 1 0 0 0 0 0 0 1 1 1 2 1 1 1 1 2 2 2 2 2 2 2 1 1 1 1 1 1 1 1
2 2 2 2 2 2 2 2 2 2 1 1 1 1 1 0 0 0 0 0 1 1 1 2 2 2 2 1 1 2 2 2 2 3 3 2 2 1 1 1 1 1 1
2 2 2 2 2 2 2 2 2 2 2 1 1 1 1 0 0 0 0 0 1 1 1 1 2 2 3 2 2 2 2 2 2 3 3 3 2 2 2 2 1 1 1
2 2 2 2 2 2 2 2 2 2 2 2 1 1 1 1 1 0 0 0 0 1 1 1 1 2 2 3 3 2 2 2 3 2 3 3 3 2 2 2 2 1 1
Wind_Direction
277 275 263 262 273 267 256 255 256 263 261 260 262 259 256 256 253 251 255 250 244 246 244 237 238 232 230 228 226 233 238 226 239 259 240 211 185 200 232 235 234 231 235
283 278 273 279 275 268 270 274 260 258 256 258 261 265 264 260 256 248 249 250 246 243 241 238 238 233 228 227 225 228 236 229 222 239 242 218 204 194 208 234 257 242 238
304 284 284 276 263 263 271 278 271 264 260 257 259 261 265 263 258 255 251 250 248 244 237 233 232 225 227 229 227 227 230 235 225 220 228 221 208 191 196 243 264 275 261
298 288 278 273 270 274 279 277 275 269 266 261 259 262 264 265 265 264 262 252 250 252 248 241 232 224 223 224 230 231 229 227 221 216 213 208 204 193 183 212 252 263 265
283 280 284 294 294 282 278 276 277 275 273 266 264 264 265 262 261 267 267 259 251 253 252 245 238 235 234 230 232 228 222 224 219 217 214 205 211 194 211 224 235 262 267
283 284 298 307 299 283 275 270 272 273 274 273 268 266 265 266 272 277 280 271 263 255 253 249 242 235 240 241 240 235 221 219 214 213 223 215 219 217 214 212 218 238 265
301 301 303 298 294 291 287 274 270 269 270 272 272 273 270 269 276 283 286 277 268 262 250 240 248 245 239 231 238 247 240 234 225 212 213 220 215 209 201 215 218 235 254
308 307 303 293 288 289 284 276 274 272 268 266 271 272 275 277 282 282 290 278 271 265 252 234 229 233 227 218 217 226 234 235 234 220 214 220 207 195 196 205 217 254 292
311 305 300 293 289 285 281 279 276 276 278 276 273 270 271 277 281 283 290 267 273 276 267 254 242 230 219 200 191 199 226 247 247 220 215 205 192 180 166 147 149 184 269
309 306 301 300 295 286 283 279 283 281 276 282 281 276 268 267 279 283 288 254 253 269 274 260 248 234 216 195 187 187 204 207 169 146 134 130 148 173 169 168 177 185 237
312 311 302 297 291 285 288 291 293 287 286 288 290 284 273 270 274 286 295 260 241 243 259 270 253 243 232 203 193 192 192 172 152 148 150 133 109 143 159 139 156 178 205
321 315 306 299 295 300 296 298 292 271 270 280 281 285 282 279 281 282 301 307 298 238 247 268 274 258 216 178 172 160 148 137 136 142 150 159 155 173 100 90 81 37 250
322 318 318 313 308 303 291 280 280 271 264 271 273 278 286 282 275 285 306 319 326 307 272 309 348 14 55 145 143 131 127 133 142 151 167 181 178 150 104 75 56 58 27
318 317 318 323 326 325 319 299 281 271 271 272 267 266 272 276 269 263 289 303 312 325 322 8 58 52 47 71 104 115 116 132 137 152 153 134 111 108 121 118 104 77 32
314 314 316 318 315 317 320 314 299 283 276 266 254 250 251 261 272 292 310 297 317 117 67 55 60 72 64 61 78 87 92 107 111 115 120 121 124 119 118 105 119 78 346
313 314 313 316 316 319 326 334 339 330 326 320 315 299 283 286 292 299 318 24 84 106 94 108 130 131 136 150 135 106 105 121 127 122 127 140 153 155 138 36 40 125 177
311 309 306 310 311 314 319 317 326 339 343 335 326 318 309 304 317 351 71 83 84 82 103 148 175 186 180 177 163 142 129 124 126 128 131 140 138 136 132 126 41 30 284
313 309 310 305 308 307 304 300 301 316 328 332 325 317 314 323 27 59 89 83 69 53 76 130 156 171 152 162 156 135 126 122 119 118 120 127 132 135 140 148 168 213 252
311 312 308 308 311 311 315 318 318 311 306 315 334 341 334 332 23 67 74 90 106 81 62 59 79 106 112 125 135 132 132 136 127 125 129 133 134 138 151 167 197 268 9
308 313 320 315 315 320 325 322 317 306 300 311 328 335 350 23 62 52 65 90 111 114 96 83 84 111 119 113 128 134 130 133 135 131 139 137 142 157 170 183 198 222 272
305 312 319 324 320 315 320 314 307 298 294 303 320 340 13 64 102 95 87 120 136 147 150 153 158 156 137 121 121 141 145 159 154 146 154 155 150 153 162 163 166 243 35
302 307 310 306 311 315 321 320 318 314 309 309 337 341 326 40 80 147 233 186 146 161 173 181 176 167 164 163 164 162 166 171 164 151 149 151 144 151 151 147 139 137 178
295 300 304 308 309 306 314 322 318 316 315 316 325 343 337 353 187 233 228 198 166 170 175 169 158 156 163 176 184 189 192 203 200 183 162 163 164 164 159 161 163 177 216
281 279 282 293 298 298 299 304 306 310 317 320 316 315 314 303 299 286 231 176 163 172 177 172 169 176 184 191 190 194 200 200 188 181 173 166 165 161 160 167 178 199 221
270 271 272 273 278 284 289 295 300 305 306 309 308 312 312 315 319 300 220 177 168 169 166 170 174 179 187 197 201 201 201 197 186 169 168 161 160 165 167 171 183 203 215
265 268 271 271 271 275 280 283 286 293 296 302 306 306 308 306 304 316 121 154 167 166 166 175 189 198 202 202 201 198 196 198 190 174 160 159 160 171 169 179 193 200 197
Height
1466 1467 1467 1467 1467 1467 1467 1468 1468 1469 1469 1469 1470 1470 1470 1471 1472 1472 1472 1472 1472 1472 1473 1473 1474 1475 1475 1476 1477 1479 1480 1480 1479 1479 1480 1480 1480 1481 1481 1480 1480 1479 1479
1463 1463 1462 1462 1462 1462 1462 1463 1463 1463 1463 1464 1464 1465 1465 1465 1466 1466 1466 1466 1466 1466 1467 1468 1468 1469 1470 1470 1471 1472 1473 1474 1474 1473 1474 1474 1475 1475 1476 1476 1475 1475 1474
1459 1458 1458 1458 1457 1457 1457 1457 1458 1458 1458 1459 1459 1459 1459 1460 1460 1460 1460 1461 1461 1461 1461 1461 1462 1463 1463 1464 1465 1466 1467 1468 1468 1468 1468 1469 1469 1470 1470 1470 1470 1470 1469
1455 1454 1454 1453 1453 1452 1453 1453 1453 1454 1454 1453 1454 1454 1454 1454 1455 1455 1455 1455 1455 1455 1455 1456 1456 1456 1457 1458 1459 1460 1461 1461 1462 1462 1462 1462 1463 1464 1465 1465 1464 1464 1464
1451 1450 1449 1448 1448 1448 1448 1448 1449 1449 1449 1449 1449 1449 1449 1449 1449 1449 1449 1449 1449 1449 1449 1449 1450 1450 1451 1452 1453 1454 1455 1455 1455 1456 1456 1456 1457 1458 1459 1459 1459 1459 1459
1447 1446 1445 1444 1444 1444 1444 1444 1444 1444 1444 1444 1444 1444 1444 1444 1444 1444 1444 1444 1443 1443 1443 1443 1443 1444 1445 1446 1447 1448 1449 1449 1449 1450 1450 1451 1451 1452 1453 1454 1455 1454 1453
1443 1442 1441 1441 1441 1440 1440 1440 1440 1439 1439 1439 1439 1439 1439 1439 1439 1439 1439 1438 1438 1437 1438 1438 1438 1439 1439 1440 1441 1442 1443 1444 1445 1445 1445 1445 1446 1447 1448 1449 1449 1449 1448
1440 1439 1439 1438 1437 1437 1436 1436 1435 1435 1435 1434 1434 1434 1434 1434 1434 1434 1434 1434 1433 1433 1433 1433 1434 1434 1434 1435 1435 1436 1437 1438 1439 1440 1441 1441 1442 1443 1444 1444 1445 1445 1444
1437 1437 1436 1435 1434 1434 1433 1432 1431 1431 1430 1430 1430 1430 1430 1430 1430 1429 1429 1429 1428 1429 1429 1429 1429 1429 1430 1430 1431 1431 1432 1433 1434 1435 1436 1437 1438 1439 1439 1440 1440 1440 1439
1435 1434 1433 1432 1431 1430 1429 1428 1428 1427 1426 1426 1426 1426 1426 1425 1425 1425 1425 1424 1424 1424 1424 1424 1425 1425 1426 1426 1426 1427 1427 1428 1430 1431 1432 1433 1434 1434 1435 1435 1435 1435 1434
1432 1431 1430 1428 1428 1427 1426 1425 1424 1423 1422 1422 1422 1422 1422 1421 1421 1421 1421 1420 1420 1420 1419 1420 1420 1421 1422 1422 1423 1423 1424 1426 1426 1427 1427 1428 1430 1430 1431 1431 1431 1431 1431
1429 1428 1427 1425 1424 1423 1422 1421 1420 1419 1418 1418 1418 1418 1418 1418 1418 1417 1417 1417 1417 1416 1416 1416 1417 1418 1418 1419 1419 1420 1421 1422 1423 1423 1424 1425 1426 1426 1427 1427 1427 1427 1428
1427 1425 1424 1423 1421 1420 1419 1418 1417 1416 1415 1415 1415 1414 1414 1414 1414 1413 1413 1413 1413 1413 1413 1414 1415 1415 1416 1416 1417 1418 1418 1419 1419 1420 1421 1422 1423 1423 1423 1423 1423 1423 1423
1424 1423 1421 1420 1419 1418 1416 1416 1415 1413 1413 1412 1412 1411 1411 1410 1410 1409 1409 1409 1410 1410 1410 1411 1412 1413 1413 1414 1414 1415 1416 1416 1417 1417 1418 1419 1419 1419 1419 1419 1419 1419 1419
1422 1420 1419 1418 1416 1415 1414 1413 1412 1412 1411 1410 1409 1409 1408 1407 1407 1407 1407 1406 1407 1407 1407 1408 1409 1410 1410 1411 1411 1412 1413 1413 1414 1415 1415 1415 1416 1416 1416 1416 1416 1416 1416
1419 1418 1417 1415 1414 1413 1411 1410 1410 1409 1409 1408 1407 1407 1406 1406 1405 1405 1405 1405 1405 1406 1406 1406 1406 1407 1407 1408 1409 1409 1410 1411 1412 1412 1412 1413 1413 1413 1413 1413 1414 1414 1413
1418 1416 1415 1414 1412 1411 1409 1408 1407 1406 1406 1405 1404 1404 1403 1403 1403 1403 1403 1403 1404 1404 1404 1404 1404 1405 1405 1406 1407 1407 1408 1409 1409 1410 1410 1410 1411 1411 1411 1411 1411 1411 1411
1416 1415 1413 1412 1410 1409 1408 1407 1406 1404 1403 1402 1402 1401 1401 1401 1401 1401 1401 1401 1401 1402 1402 1402 1402 1403 1404 1404 1405 1405 1406 1406 1407 1407 1408 1408 1409 1409 1409 1409 1409 1409 1409
1414 1413 1412 1410 1409 1407 1406 1405 1404 1402 1401 1400 1400 1399 1399 1399 1398 1399 1399 1399 1399 1399 1400 1401 1401 1402 1402 1403 1403 1404 1404 1405 1405 1406 1406 1407 1407 1408 1407 1407 1407 1407 1407
1412 1411 1410 1408 1407 1405 1404 1403 1402 1401 1400 1399 1398 1397 1397 1396 1396 1396 1397 1397 1398 1398 1399 1399 1400 1400 1401 1401 1401 1402 1403 1403 1404 1404 1405 1405 1405 1406 1406 1406 1406 1405 1405
1410 1409 1408 1406 1405 1404 1402 1401 1400 1399 1398 1397 1397 1397 1396 1395 1395 1395 1395 1395 1396 1396 1397 1398 1398 1398 1399 1399 1400 1401 1402 1402 1402 1403 1403 1403 1403 1404 1404 1404 1404 1404 1404
1408 1407 1406 1405 1403 1402 1401 1400 1399 1398 1397 1396 1396 1395 1395 1394 1393 1393 1394 1394 1395 1395 1396 1396 1396 1397 1397 1398 1399 1399 1400 1401 1401 1402 1402 1402 1402 1402 1402 1402 1402 1402 1402
1406 1405 1404 1403 1402 1401 1399 1398 1397 1396 1395 1395 1394 1394 1393 1392 1392 1392 1392 1393 1393 1394 1394 1394 1395 1395 1396 1397 1398 1398 1399 1399 1400 1400 1400 1400 1400 1400 1400 1400 1401 1400 1400
1404 1403 1402 1401 1400 1398 1397 1396 1395 1394 1394 1393 1392 1392 1391 1391 1391 1391 1391 1392 1392 1392 1393 1393 1393 1394 1395 1395 1396 1397 1397 1398 1398 1399 1399 1399 1399 1399 1399 1399 1399 1399 1399
1402 1401 1400 1399 1398 1396 1395 1394 1394 1393 1392 1391 1391 1390 1390 1390 1390 1390 1390 1390 1391 1391 1391 1392 1392 1393 1393 1394 1394 1395 1396 1396 1397 1397 1397 1397 1397 1397 1397 1397 1398 1398 1398
1399 1398 1397 1397 1395 1394 1393 1392 1392 1391 1391 1390 1390 1389 1389 1388 1388 1388 1389 1389 1389 1390 1390 1390 1391 1391 1392 1392 1393 1393 1394 1394 1395 1395 1395 1395 1395 1395 1396 1396 1396 1396 1396